Regional Weather Roundup
Issued by NWS

Home | Current Version | Previous Version | Text Only | Print | Product List | Glossary Off
Versions: 1 2 3 4 5 6 7 8 9 10 11 12 13 14 15 16 17 18 19 20 21 22 23 24 25 26 27 28 29 30 31 32 33 34 35 36 37 38 39 40 41 42 43 44 45 46 47 48 49 50

000
ASUS43 KMPX 221710
RWRMN
WEATHER ROUNDUP FOR MINNESOTA
NATIONAL WEATHER SERVICE TWIN CITIES/CHANHASSEN MN
1200 PM CDT WED OCT 22 2014


NOTE: "FAIR" INDICATES FEW OR NO CLOUDS BELOW 12,000 FEET WITH NO
SIGNIFICANT WEATHER AND/OR OBSTRUCTIONS TO VISIBILITY. N/A MEANS
CURRENT SKY AND/OR WEATHER CONDITIONS ARE NOT AVAILABLE.

MNZ060>063-068>070-221800-
   Twin Cities Metro

CITY           SKY/WX    TMP DP  RH WIND       PRES   REMARKS
TWIN CITIES    CLOUDY    51  40  65 SE13      30.17F
ST PAUL        CLOUDY    52  40  63 SE17G26   30.18F
CRYSTAL        CLOUDY    52  39  61 SE21G28   30.14F
BLAINE           N/A     54  41  62 MISG        N/A
LAKEVILLE      CLOUDY    50  39  66 S14G23    30.17F
EDEN PRAIRIE   CLOUDY    52  40  63 S18       30.15F
SOUTH ST PAUL  CLOUDY    52  39  59 SE14      30.17F
LAKE ELMO      CLOUDY    52  39  62 SE16      30.20S
$$
MNZ001>005-007-008-013>017-022>024-027-028-221800-
   Northwest Minnesota

CITY           SKY/WX    TMP DP  RH WIND       PRES   REMARKS
BEMIDJI        SUNNY     57  42  55 SE17G25   29.95F
HALLOCK          N/A     61  45  55 S29G38    29.79S
ROSEAU         PTSUNNY   61  45  55 S21G28    29.85F
WARROAD        PTSUNNY   57  46  67 S10       29.88S
THIEF RVR FALL PTSUNNY   61  43  51 S24G30    29.87S
CROOKSTON      PTSUNNY   59  45  58 S24G33    29.86S
FOSSTON        MOSUNNY   57  43  58 S20G25    29.90S
DETROIT LAKES  PTSUNNY   55  43  62 S22G30    29.93F
MOORHEAD       MOSUNNY   61  45  55 S24G32    29.88F
PARK RAPIDS    MOSUNNY   55  40  56 S23G31    29.98F
MAHNOMEN       FAIR      58  43  56 S16G28    29.90F
$$
MNZ006-009>011-018-025>026-221800-
   North Central Minnesota

CITY           SKY/WX    TMP DP  RH WIND       PRES   REMARKS
BAUDETTE       MOSUNNY   57  41  55 S17G28    29.92F
FLAG ISLAND    PTSUNNY   50  43  76 SE25      29.87F
INTL FALLS     SUNNY     55  40  56 S16G25    30.00F
WASKISH        SUNNY     57  43  58 SE13G23   29.95R
BIG FORK       SUNNY     55  39  54 SE10G22   30.02F
LONGVILLE      CLOUDY    54  41  62 SE14      30.03S
GRAND RAPIDS   SUNNY     52  37  58 S22G29    30.06S
CRANE LAKE     SUNNY     54  39  58 S12G20    30.09F
ORR            SUNNY     55  37  50 SE12G22   30.04F
COOK           SUNNY     54  39  58 SE18G24   30.08F
WALKER         FAIR      55  40  57 S15G24    29.99F
$$
MNZ012-019>021-037-221800-
   Northeast Minnesota

CITY           SKY/WX    TMP DP  RH WIND       PRES   REMARKS
DULUTH         SUNNY     51  37  58 S15       30.16F
ELY            SUNNY     54  37  54 S15G22    30.13S
HIBBING        SUNNY     54  38  54 S16       30.09F
EVELETH        SUNNY     54  37  54 S13G21    30.12F
DULUTH HARBOR  SUNNY     55  39  54 S12       30.19F
TWO HARBORS    SUNNY     54  30  40 SE9       30.17F
SILVER BAY     SUNNY     50  37  62 E5        30.18F
GRAND MARAIS     N/A     47  39  74 S9        30.25F
G MARAIS ARPRT SUNNY     45  34  65 S7        30.22F
$$
MNZ029>031-032-039>041-046>048-054>057-064-221800-
   West Central Minnesota

CITY           SKY/WX    TMP DP  RH WIND       PRES   REMARKS
FERGUS FALLS   PTSUNNY   59  41  51 S20G29    29.94S
WHEATON        PTSUNNY   61  45  55 SE20      29.92S
MORRIS         PTSUNNY   61  45  55 SE21G29   29.94S
ALEXANDRIA     MOSUNNY   55  43  63 S30       29.99F
ELBOW LAKE     FAIR      58  43  58 S25       29.94F
WADENA         MOSUNNY   55  43  62 S16       29.98F
GLENWOOD       MOSUNNY   55  45  67 SE21      30.01S
APPLETON       MOSUNNY   64  45  48 S20G26    29.95R
BENSON         MOSUNNY   57  45  62 S20G28    29.98S
ORTONVILLE     MOSUNNY   64  46  52 S17G25    29.92S
MADISON        PTSUNNY   68  48  49 S20G28    29.94S
WILLMAR        FAIR      61  41  48 S18G26    30.04S
$$
MNZ033>034-036-042>043-049>051-058-059-221800-
   Central Minnesota

CITY           SKY/WX    TMP DP  RH WIND       PRES   REMARKS
ST CLOUD       PTSUNNY   54  40  59 SE22      30.09F
SAUK CENTRE    FAIR      57  42  57 S22G29    30.03F
PAYNESVILLE    MOSUNNY   53  40  61 E18G26    30.05S
AITKIN         CLOUDY    54  41  62 S17       30.06F
PINE RIVER     SUNNY     54  41  62 S20G31    30.06S
BRAINERD       CLOUDY    52  40  63 S14G25    30.05F
STAPLES        MOSUNNY   54  39  58 S14G24    30.02R
LONG PRAIRIE   PTSUNNY   54  41  62 SE20G25   30.03S
LITTLE FALLS   SUNNY     52  37  58 SE20G25   30.06F
LITCHFIELD     MOSUNNY   57  43  58 SE16G22   30.07F
BUFFALO        CLOUDY    52  39  62 SE13G22   30.13S
MAPLE LAKE     MOSUNNY   53  43  67 SE10G20   30.11F
$$
MNZ037-044-045-052-053-221800-
   East Central Minnesota

CITY           SKY/WX    TMP DP  RH WIND       PRES   REMARKS
PRINCETON      CLOUDY    52  39  62 SE17      30.13F
MORA           PTSUNNY   50  39  66 SE13G18   30.16F
CAMBRIDGE      PTSUNNY   52  39  62 SE10G18   30.13F
RUSH CITY      PTSUNNY   51  39  64 SE10G17   30.17F
MOOSE LAKE     SUNNY     54  37  54 S10G17    30.13F
HINCKLEY       PTSUNNY   50  41  71 S12       30.16F
CLOQUET        SUNNY     52  37  58 SE12G21   30.15F
MCGREGOR       MOSUNNY   54  41  62 SE14      30.10F
$$
MNZ071>073-080-081-089-090-097-098-221800-
   Southwest Minnesota

CITY           SKY/WX    TMP DP  RH WIND       PRES   REMARKS
MONTEVIDEO     MOSUNNY   63  45  51 SW15G24   29.98F
GRANITE FALLS  MOSUNNY   62  45  52 SE24G31   30.00F
CANBY          CLOUDY    63  47  56 S18G25    29.95S
MARSHALL       PTSUNNY   63  45  51 S22G31    29.96F
REDWOOD FALLS  MOSUNNY   61  42  49 S25G35    30.02F
OLIVIA         SUNNY     59  43  55 S18G29    30.02F
PIPESTONE      PTSUNNY   63  46  55 S25       29.98F
WINDOM         SUNNY     63  43  48 S17G23    30.05F
WORTHINGTON    SUNNY     61  45  55 S20       30.05S
JACKSON        SUNNY     61  41  48 S21G26    30.08S
TRACY          MOSUNNY   62  46  55 S23       30.00F
SLAYTON        MOSUNNY   62  44  51 S24       30.02F
$$
MNZ065>067-074>077-082>085-091>093-221800-
   South Central Minnesota

CITY           SKY/WX    TMP DP  RH WIND       PRES   REMARKS
MANKATO        PTSUNNY   55  39  54 S17G29    30.13S
NEW ULM        SUNNY     57  43  58 S22G31    30.08S
ST JAMES       SUNNY     61  43  51 SE18G30   30.09F
FAIRMONT       SUNNY     57  39  51 S25G31    30.10F
GLENCOE        MOSUNNY   56  43  61 SE22      30.10F
FARIBAULT      PTSUNNY   52  41  66 SE16G23   30.18S
OWATONNA       SUNNY     54  39  58 S16G25    30.17F
WASECA         CLOUDY    50  36  57 SE16G24   30.18S
ALBERT LEA     MOSUNNY   54  41  62 S18G25    30.17S
$$
MNZ078>079-086>088-094>096-221800-
   Southeast Minnesota

CITY           SKY/WX    TMP DP  RH WIND       PRES   REMARKS
ROCHESTER      PTSUNNY   52  39  61 S20G29    30.23F
RED WING       SUNNY     54  37  54 S9G18     30.22F
STANTON        CLOUDY    53  40  59 S13G22    30.18S
DODGE CENTER   CLOUDY    52  41  66 S22       30.20S
WINONA         SUNNY     54  37  54 S7        30.27F
AUSTIN         MOSUNNY   52  39  62 S10G23    30.21S
PRESTON        SUNNY     51  39  64 S13G23    30.26S
$$
ABBREVIATIONS USED IN REMARKS
   TC - TEMPERATURES IN CELSIUS
  WCI - WIND CHILL INDEX
   HX - HEAT INDEX
  VSB - VISIBILITY
$$



USA.gov is the U.S. government's official web portal to all federal, state and local government web resources and services.